Starlink 5927

operational
NORAD ID: 55934 Int'l Des: 2023-037 Owner: SPXS Country: US Constellation: starlink
LEOCIRCULAR

关于 Starlink 5927

正在加载描述...

实时位置

正在加载3D地球...

即将过境

高度历史

Altitude vs Time

uPlot chart will show altitude changes over time

两行轨道根数

1 55934U 23037W 25304.58979164 -.00000185 00000-0 -77020-5 0 9991
2 55934 70.0018 249.9051 0001886 291.3621 68.7336 14.98327481144640
Epoch: Oct 31, 2025 • Age: 25 hours

当前状态

高度 577.7 km
速度 7.58 km/s
星下点 36.76°N, 148.28°E
发射日期 Mar 17, 2023
运行时间 2.6 years
类型 internet

技术详情

分类 Payload
质量 305.00 kg
干质量 290.00 kg
总质量 305.00 kg
长度 0.20 m
直径 2.80 m
跨度 9.00 m
形状 Box + pan
制造商 SPXS
平台类型 Starlink
阶段状态 In Orbit
所有者/国家 SPXS/US

大型星座

Loading constellations...